Home > Weather > Ilmenau > Past weeks

Flag for Germany Weather for the Past 2 Weeks in Ilmenau, Thuringia, Germany

Now
34 °F

Clear.


Feels Like: 26 °F
Forecast: 35 / 54 °F
Wind: 9 mph from South

Location: Erfurt-Bindersleben

Current Time: Apr 29, 2016 at 5:01:39 AM

Latest Report: Apr 29, 2016 at 4:20 AM


Visibility: 10 mi

Pressure: 30.01 "Hg

Humidity: 75%

Dew Point: 27 °F

Location of IlmenauLocation

Historic Weather in Ilmenau — Graph

°F

Ilmenau Temperature Yesterday

Maximum temperature yesterday: 46 °F (at 1:20 PM)
Minimum temperature yesterday: 36 °F (at 3:20 AM)
Average temperature yesterday: 41 °F

High & Low Weather Summary for the Past Weeks

 TemperatureHumidityPressure
High61 °F (Apr 21, 3:50 PM)100% (Apr 17, 2:50 AM)30.42 "Hg (Apr 17, 2:50 AM)
Low28 °F (Apr 24, 4:50 AM)41% (Apr 18, 5:20 PM)29.47 "Hg (Apr 26, 1:50 AM)
Average44 °F72%29.90 "Hg
* Reported Apr 14 3:20 AM — Apr 29 3:20 AM, Ilmenau, Weather by CustomWeather, © 2016

Note: Actual official high and low records may vary slightly from our data, if they occured in-between our weather recording intervals... More about our weather records

Advertising

Ilmenau Weather History for the Previous 24 Hours

Scroll right to see more
 ConditionsComfort  
Time TempWeatherWind HumidityBarometerVisibility
3:20 AM
Fri, Apr 29
34 °FClear.10 mph75%30.01 "Hg10 mi
2:50 AM34 °FClear.10 mph75%30.01 "Hg10 mi
2:20 AM34 °FClear.10 mph81%30.01 "Hg10 mi
1:50 AM34 °FClear.8 mph81%30.01 "Hg10 mi
1:20 AM34 °FClear.9 mph81%30.01 "Hg10 mi
12:50 AM36 °FClear.10 mph75%30.01 "Hg10 mi
12:20 AM36 °FClear.9 mph75%30.01 "Hg10 mi
11:50 PM
Thu, Apr 28
36 °FClear.9 mph75%30.01 "Hg10 mi
11:20 PM36 °FClear.8 mph75%30.01 "Hg10 mi
10:50 PM39 °FClear.2 mph70%30.01 "Hg10 mi
10:20 PM41 °FClear.No wind66%30.01 "Hg10 mi
9:50 PM41 °FClear.No wind66%30.01 "Hg10 mi
9:20 PM41 °FSunny.2 mph61%30.01 "Hg10 mi
8:50 PM41 °FPassing clouds.2 mph66%30.01 "HgN/A
8:20 PM43 °FPassing clouds.1 mph66%29.98 "HgN/A
7:50 PM45 °FScattered showers. Passing clouds.7 mph57%29.98 "HgN/A
7:20 PM45 °FPassing clouds.7 mph61%29.98 "HgN/A
6:50 PM45 °FPassing clouds.9 mph57%29.98 "HgN/A
6:20 PM45 °FPassing clouds.10 mph61%29.98 "HgN/A
5:50 PM46 °FPassing clouds.13 mph57%29.95 "HgN/A
5:20 PM45 °FScattered clouds.10 mph57%29.95 "HgN/A
4:50 PM43 °FScattered showers. Scattered clouds.21 mph66%29.95 "HgN/A
4:20 PM46 °FScattered clouds.12 mph62%29.95 "HgN/A
3:50 PM46 °FScattered showers. Passing clouds.13 mph62%29.95 "HgN/A
3:20 PM45 °FScattered showers. Scattered clouds.9 mph66%29.95 "HgN/A
2:20 PM46 °FScattered showers. Scattered clouds.13 mph57%29.95 "HgN/A
1:50 PM46 °FScattered showers. Scattered clouds.14 mph53%29.95 "HgN/A
1:20 PM46 °FPassing clouds.15 mph57%29.95 "HgN/A
12:50 PM45 °FScattered clouds.12 mph61%29.95 "HgN/A
12:20 PM43 °FScattered clouds.12 mph66%29.95 "HgN/A
11:50 AM41 °FScattered clouds.14 mph76%29.95 "HgN/A
11:20 AM43 °FScattered clouds.12 mph71%29.95 "HgN/A
10:20 AM37 °FLight rain. Partly sunny.10 mph93%29.92 "HgN/A
9:20 AM41 °FPartly sunny.17 mph70%29.89 "HgN/A
7:50 AM39 °FScattered clouds.17 mph70%29.89 "HgN/A
7:20 AM37 °FScattered clouds.14 mph81%29.89 "HgN/A
6:50 AM37 °FPassing clouds.10 mph81%29.86 "HgN/A
5:50 AM37 °FPartly cloudy.9 mph81%29.86 "HgN/A
5:20 AM37 °FPassing clouds.10 mph81%29.86 "HgN/A
Weather by CustomWeather, © 2016

See weather overviewHow to use our weather pages